Regional Weather Roundup
Issued by NWS

Home | Current Version | Previous Version | Graphics & Text | Print | Product List | Glossary On
Versions: 1 2 3 4 5 6 7 8 9 10 11 12 13 14 15 16 17 18 19 20 21 22 23 24 25 26 27 28 29 30 31 32 33 34 35 36 37 38 39 40 41 42 43 44 45 46 47 48 49 50
000
ASUS43 KLSX 191957
RWRMO

WEATHER SUMMARY FOR MISSOURI
NATIONAL WEATHER SERVICE SPRINGFIELD MO
300 PM CDT THU OCT 19 2017

NOTE: "FAIR" INDICATES FEW OR NO CLOUDS BELOW 12,000 FEET WITH NO
       SIGNIFICANT WEATHER AND/OR OBSTRUCTIONS TO VISIBILITY.
       CURRENT SKY AND/OR WEATHER CONDITIONS ARE NOT AVAILABLE FOR
       CHILLICOTHE AND FARMINGTON.

MOZ001>031-035>038-043-044-053-054-192100-
...NORTHERN AND WESTERN MISSOURI...

CITY           SKY/WX    TMP DP  RH WIND       PRES   REMARKS
KANSAS CTY INT FAIR      78  53  41 S15       30.07F
LEE`S SUMMIT   FAIR      78  54  43 S13       30.08F
ST JOSEPH      FAIR      79  52  38 S12       30.05F
CHILLICOTHE      N/A     77  55  46 S6        30.08F

$$
MOZ066>068-077>081-088>096-101>105-192100-
...SOUTHWEST MISSOURI...

CITY           SKY/WX    TMP DP  RH WIND       PRES   REMARKS
SPRINGFIELD    FAIR      79  50  36 SE6       30.14F
JOPLIN         FAIR      77  53  43 S8        30.13F
BRANSON        PTSUNNY   81  46  30 SE8       30.17F

$$
MOZ032>034-039>042-045>050-055>058-069>072-192100-
...CENTRAL MISSOURI...

CITY           SKY/WX    TMP DP  RH WIND       PRES   REMARKS
COLUMBIA       NOT AVBL
JEFFERSON CITY FAIR      79  51  37 S3        30.12F
ROLLA          FAIR      78  49  35 S10       30.16F
SEDALIA        FAIR      79  54  41 S9        30.12F
WARRENSBURG    FAIR      79  50  36 S10       30.10S

$$
MOZ051-052-059>065-192100-
...EAST CENTRAL MISSOURI...

CITY           SKY/WX    TMP DP  RH WIND       PRES   REMARKS
ST LOUIS INTL  FAIR      79  49  34 VRB3      30.15F

$$
MOZ072>076-082>087-097>100-106>115-192100-
...SOUTH CENTRAL AND SOUTHEAST MISSOURI...

CITY           SKY/WX    TMP DP  RH WIND       PRES   REMARKS
CAPE GIRARDEAU FAIR      77  49  37 SW8       30.18F
POPLAR BLUFF   FAIR      78  50  37 S5        30.17F
WEST PLAINS    FAIR      79  44  28 S6        30.18F

$$



USA.gov is the U.S. government's official web portal to all federal, state and local government web resources and services.